Location: ????????
(55.0808°N, 38.5463°E)
Time: 11:24:55
(UTC+00:00)

ADEOS II - Pass Details

Date: 14 April 2024
Orbit: 796 x 799 km, 98.7° (Epoch: 18 May)

Event Time Altitude Azimuth Distance (km) Brightness Sun altitude
Rises 00:41:45 0° 14° (NNE) 3,320 6.2 -13.6°
Reaches altitude 10° 00:44:08 10° 9° (N) 2,385 5.3 -13.4°
Maximum altitude 00:49:13 52° 295° (WNW) 990 2.4 -12.8°
Enters shadow 00:53:07 17° 224° (SW) 1,931 3.4 -12.3°
